Regional Weather Roundup
Issued by NWS

Home | Current Version | Previous Version | Graphics & Text | Print | Product List | Glossary On
Versions: 1 2 3 4 5 6 7 8 9 10 11 12 13 14 15 16 17 18 19 20 21 22 23 24 25 26 27 28 29 30 31 32 33 34 35 36 37 38 39 40 41 42 43 44 45 46 47 48 49 50
000
ASUS43 KFSD 030602
RWRSD

WEATHER ROUNDUP FOR SOUTH DAKOTA
NATIONAL WEATHER SERVICE SIOUX FALLS SD
100 AM CDT THU SEP 03 2015

NOTE: "FAIR" INDICATES FEW OR NO CLOUDS BELOW 12,000 FEET WITH NO
SIGNIFICANT WEATHER AND/OR OBSTRUCTIONS TO VISIBILITY.


SDZ001>005-009-010-012>017-030700-
NORTHWEST AND NORTH CENTRAL SOUTH DAKOTA

CITY           SKY/WX    TMP DP  RH WIND       PRES   REMARKS
BUFFALO          N/A     72  54  53 S7        29.69S
FAITH            N/A     72  57  59 SE14      29.74S
MOBRIDGE       CLEAR     76  73  91 SE12      29.69F
$$

SDZ012>016-024>037-041>051-057-063-072>074-030700-
SOUTHWEST AND SOUTH CENTRAL SOUTH DAKOTA

CITY           SKY/WX    TMP DP  RH WIND       PRES   REMARKS
RAPID CTY ARPT CLEAR     62  52  69 N3        29.80S
PIERRE         CLEAR     80  58  46 S9        29.71S
CUSTER         PTCLDY    60  36  40 NW5       30.00S
ELLSWORTH AFB  CLEAR     72  46  39 SW7       29.79F
PHILIP         CLEAR     68  54  60 CALM      29.75R
PINE RIDGE     CLEAR     69  47  45 VRB5      29.85S
WINNER         FAIR      80  57  45 S14       29.77F
$$

SDZ004>011-016>023-039-040-030700-
NORTHEAST SOUTH DAKOTA

CITY           SKY/WX    TMP DP  RH WIND       PRES   REMARKS
ABERDEEN       CLEAR     76  72  87 SE10      29.76F
WATERTOWN      FAIR      74  70  87 SE12      29.83F
BROOKINGS      FAIR      73  70  88 SE13      29.86S
$$

SDZ017-020-022-023-036>040-048>070-030700-
SOUTHEAST SOUTH DAKOTA

CITY           SKY/WX    TMP DP  RH WIND       PRES   REMARKS
SIOUX FALLS    FAIR      73  70  90 SE8       29.84F
HURON          CLEAR     74  71  91 SE10      29.76F
CHAMBERLAIN    CLEAR     73  67  82 E6        29.76S
MITCHELL       CLEAR     73  71  93 SE10      29.79S
YANKTON        FAIR      72  70  94 SE3       29.80F
$$

ABBREVIATIONS USED IN REMARKS
   TC - TEMPERATURE IN CELSIUS
  WCI - WIND CHILL INDEX
   HX - HEAT INDEX
  VSB - VISIBILITY




USA.gov is the U.S. government's official web portal to all federal, state and local government web resources and services.